Flag for China Weather past 2 weeks in Tsingtao, Shandong, China

Now
54 °F

Clear.


Feels Like: 54 °F
Forecast: 52 / 66 °F
Wind: 1 mph from North

Location: Qingdao Airport

Current Time: Apr 22, 2015 at 4:01:46 AM

Latest Report: Apr 22, 2015 at 3:00 AM


Visibility: 4 mi

Pressure: 30.01 "Hg

Humidity: 58%

Dew point: 39 °F

Location of TsingtaoLocation

Historic Weather in Tsingtao — Graph

°F

Tsingtao temperature yesterday

Maximum temperature yesterday: 73 °F (at 12:00 PM)
Minimum temperature yesterday: 43 °F (at 5:00 AM)
Average temperature yesterday: 59 °F

Past Weeks' High & Low Weather Summary

 TemperatureHumidityPressure
High73 °F (Apr 21, 12:00 PM)94% (Apr 13, 12:00 PM)30.48 "Hg (Apr 13, 12:00 PM)
Low30 °F (Apr 8, 6:00 AM)12% (Apr 20, 3:00 PM)29.56 "Hg (Apr 15, 6:00 PM)
Average54 °F50%30.04 "Hg
* Reported Apr 7 3:00 AM — Apr 22 3:00 AM, Tsingtao, Weather by CustomWeather, © 2015

Note: Actual official high and low records may vary slightly from our data, if they occured in-between our weather recording intervals... More about our weather records

Advertising

Tsingtao weather history for previous 24 hours

 ConditionsComfort  
Time TempWeatherWind HumidityBarometerVisibility
3:00 AM
Wed, Apr 22
54 °FClear.1 mph58%30.01 "Hg4 mi
2:00 AM55 °FClear.1 mph51%30.01 "Hg10 mi
1:00 AM54 °FPassing clouds.3 mph54%30.01 "HgN/A
12:00 AM57 °FClear.3 mph48%30.01 "Hg10 mi
11:00 PM
Tue, Apr 21
57 °FClear.3 mph48%29.98 "Hg10 mi
10:00 PM59 °FClear.8 mph39%29.92 "Hg10 mi
9:00 PM57 °FClear.6 mph44%29.95 "Hg10 mi
8:00 PM63 °FClear.10 mph37%29.92 "Hg10 mi
7:00 PM64 °FClear.13 mph37%29.89 "Hg10 mi
6:00 PM64 °FSunny.13 mph37%29.89 "Hg10 mi
5:00 PM68 °FSunny.15 mph30%29.89 "Hg10 mi
4:00 PM68 °FClear.15 mph33%29.89 "Hg4 mi
3:00 PM70 °FClear.20 mph31%29.89 "Hg4 mi
2:00 PM70 °FClear.17 mph31%29.92 "Hg4 mi
1:00 PM72 °FSunny.15 mph25%29.95 "Hg10 mi
12:00 PM73 °FPassing clouds.13 mph22%29.95 "HgN/A
11:00 AM72 °FPassing clouds.10 mph23%29.98 "HgN/A
10:00 AM68 °FPassing clouds.8 mph28%30.01 "HgN/A
9:00 AM64 °FPassing clouds.8 mph34%30.01 "HgN/A
8:00 AM61 °FPassing clouds.8 mph34%30.01 "HgN/A
7:00 AM57 °FClear.1 mph44%30.01 "Hg4 mi
6:00 AM46 °FSunny.1 mph57%30.01 "Hg10 mi
5:00 AM43 °FClear.1 mph66%30.01 "Hg10 mi
4:00 AM45 °FClear.No wind71%30.01 "Hg10 mi
Weather by CustomWeather, © 2015

See weather overviewHow to use our weather pages